Regional Weather Roundup
Issued by NWS

Home | Current Version | Previous Version | Text Only | Print | Product List | Glossary Off
Versions: 1 2 3 4 5 6 7 8 9 10 11 12 13 14 15 16 17 18 19 20 21 22 23 24 25 26 27

000
ASUS45 KBOU 170007
RWRCO

WEATHER ROUNDUP FOR COLORADO
NATIONAL WEATHER SERVICE DENVER/BOULDER CO
600 PM MDT MON OCT 16 2017

NOTE: "FAIR" INDICATES FEW OR NO CLOUDS BELOW 12000 FEET WITH NO
SIGNIFICANT WEATHER AND/OR OBSTRUCTIONS TO VISIBILITY.

COZ001>005-013-030-031-170100-
...NORTHWEST COLORADO...

CITY           SKY/WX    TMP DP  RH WIND       PRES   REMARKS
CRAIG          FAIR      60   2   9 W8        30.35S
HAYDEN         FAIR      61   4  10 W6        30.38S
MEEKER         FAIR      65   4   9 NW8       30.35S
RABBIT EARS PA FAIR      43   7  22 W8        30.55S
STEAMBOAT SPGS FAIR      60   3  10 W6        30.38S
WALDEN         FAIR      54   1  12 SW10      30.43R
$$

COZ006>008-011-170100-
...WEST CENTRAL VALLEYS...

CITY           SKY/WX    TMP DP  RH WIND       PRES   REMARKS
GRAND JUNCTION FAIR      64  14  14 W6        30.32F
MONTROSE       FAIR      62   8  12 NW6       30.37R
EAGLE          FAIR      64   0   7 S15       30.37R
RIFLE          FAIR      65   5   9 W14       30.32F
DELTA          FAIR      70  10   9 SW7       30.30F
NUCLA          FAIR      70   5   8 NW5       30.37F
$$

COZ017>023-064>068-170100-
...SOUTHWEST COLORADO...

CITY           SKY/WX    TMP DP  RH WIND       PRES   REMARKS
DURANGO        FAIR      67  12  12 SW13      30.37F
CORTEZ         FAIR      69   9   9 W5        30.36S
PAGOSA SPRINGS FAIR      66   4   9 S7        30.44S
TELLURIDE      NOT AVBL
WOLF CREEK PAS NOT AVBL
$$

COZ009-010-012-014-032>034-037-058>063-170100-
...CENTRAL COLORADO...

CITY           SKY/WX    TMP DP  RH WIND       PRES   REMARKS
ASPEN          FAIR      58  -2   8 W5        30.42R
BUENA VISTA    FAIR      63 -11   5 SW7       30.39R
COPPER MTN     FAIR      45 -35   3 W16G22    30.64R
BERTHOUD PASS  FAIR      36  28  75 NW29G38   30.63R
COTTONWOOD PAS   N/A     61 N/A N/A NW7G24    30.51R
GUNNISON       FAIR      64  -7   5 W9        30.40S
KREMMLING      FAIR      64   0   7 N13G18    30.39R
LEADVILLE      FAIR      51  -5   9 NW8       30.51S
MONARCH PASS   FAIR      45  -8  11 W30G36    30.73F
SALIDA         NOT AVBL
SUNLIGHT       FAIR      43   3  19 SW9       30.61S
WILKERSON PASS FAIR      48 -17   6 NW5       30.62S
$$

COZ069>075-170100-
...SAN LUIS VALLEY/SANGRE DE CRISTO MOUNTAINS...

CITY           SKY/WX    TMP DP  RH WIND       PRES   REMARKS
ALAMOSA        FAIR      66  13  12 NE5       30.36F
DEL NORTE      FAIR      61  14  15 CALM      30.42S
LA VETA PASS   FAIR      54  10  17 S18G30    30.63F
SAGUACHE       FAIR      63  10  13 SE3       30.41F
$$

COZ035-036-038>040-170100-
...NORTHERN COLORADO FRONT RANGE...

CITY           SKY/WX    TMP DP  RH WIND       PRES   REMARKS
DENVER INTL AP FAIR      69  16  13 W5        30.21S
DMNS CITY PARK   N/A     69  15  12 SW3G9     30.21S
AURORA         PTCLDY    70  18  13 CALM      30.24R
FRONT RANGE AP PTCLDY    72  10   9 N5        30.23R
ERIE MUNI ARPT FAIR      68  16  13 S9        30.24S
BOULDER MUN AP FAIR      70  25  18 NW5       30.21R
CENTENNIAL     MOCLDY    70  11  10 CALM      30.24S
BROOMFIELD     MOCLDY    72  16  12 S5        30.23S
FORT COLLINS   FAIR      69  27  20 W5        30.20R
LONGMONT       FAIR      70  26  19 CALM      30.21S
$$

COZ041-046-047-076>085-087-088-170100-
...PIKES PEAK/PALMER DIVIDE AND SOUTHERN FOOTHILLS...

CITY           SKY/WX    TMP DP  RH WIND       PRES   REMARKS
COLO. SPRINGS  FAIR      69  10  10 E8        30.28R
A. F. ACADEMY  FAIR      64  12  13 CALM      30.29R
SCHRIEVER AFB  FAIR      65   8  10 E6        30.28R
CHEYENNE MTN   FAIR      61  11  14 W8        30.26R
ELLICOTT       FAIR     N/A N/A N/A SE3       30.26S
FALCON         FAIR      64   8  11 E3        30.33R
FORT CARSON    FAIR      69  10  10 W3        30.24R
LIMON          FAIR      61  16  17 N7        30.22S
MONUMENT HILL  FAIR      61  14  16 CALM      30.34R
CANON CITY     CLEAR     77   1   5 W6        30.19R
WALSENBURG     FAIR      68  12  11 W8        30.26R
TRINIDAD       FAIR      71  22  15 S6        30.24S
$$

COZ042>045-048>051-090-091-170100-
...NORTHEAST COLORADO...

CITY           SKY/WX    TMP DP  RH WIND       PRES   REMARKS
GREELEY ARPT   FAIR      71  29  21 S5        30.18S
AKRON          FAIR      74  12   9 CALM      30.16
BURLINGTON     FAIR      75  21  13 S3        30.15R
WRAY           FAIR      70  19  14 NW6       30.12S
YUMA           FAIR      72  19  14 CALM      30.13F
STERLING       FAIR      70  23  17 N3        30.13R
HOLYOKE        FAIR      66  32  28 NW6       30.12S
FORT MORGAN    FAIR      71  14  11 W3        30.17S
$$

COZ086-089-092>099-170100-
...SOUTHEAST COLORADO...

CITY           SKY/WX    TMP DP  RH WIND       PRES   REMARKS
PUEBLO         FAIR      78  12   8 CALM      30.15F
LA JUNTA       FAIR      73  24  16 E6        30.15S
LAMAR          FAIR      73  25  16 S5        30.12F
SPRINGFIELD      N/A     64  33  31 S10       30.19S
$$




USA.gov is the U.S. government's official web portal to all federal, state and local government web resources and services.